Regional Weather Roundup
Issued by NWS

Home | Current Version | Previous Version | Text Only | Print | Product List | Glossary Off
Versions: 1 2 3 4 5 6 7 8 9 10 11 12 13 14 15 16 17 18 19 20 21 22 23 24 25 26 27 28 29 30 31 32 33 34 35 36 37 38 39 40 41 42 43 44 45 46 47 48 49 50

000
ASUS44 KMEG 271610
RWRTN
TENNESSEE HOURLY STATE WEATHER ROUNDUP
NATIONAL WEATHER SERVICE MEMPHIS TN
1000 AM CST FRI FEB 27 2015

TNZ002-004-019-021-049-052-054-088>092-271700-
WEST TENNESSEE

CITY           SKY/WX    TMP DP  RH WIND       PRES   REMARKS
MEMPHIS INTL   MOSUNNY   27  13  55 NE10      30.59R WCI  17
NWS MEMPHIS      N/A     24 N/A N/A MISG        N/A
JACKSON        CLOUDY    24  14  65 N13       30.59S WCI  12
DYERSBURG      SUNNY     19   3  49 N12       30.64S WCI   7
UNION CITY     SUNNY     16  10  79 NE12      30.61F WCI   3
PARIS          PTSUNNY   19  10  68 NE6       30.60S WCI  11
LEXINGTON      SUNNY     25   3  39 NE13      30.56S WCI  13
SAVANNAH       SUNNY     27   9  46 NE8       30.56S WCI  18
$$

TNZ008-025-027-028-033-062-065-066-271700-
NORTH MIDDLE TENNESSEE

CITY           SKY/WX    TMP DP  RH WIND       PRES   REMARKS
NASHVILLE      MOSUNNY   27   9  46 N12       30.57R WCI  17
CLARKSVILLE    SUNNY     22  12  65 N12       30.61R WCI  10
SMYRNA         MOSUNNY   27   9  46 N10       30.58R WCI  17
COOKEVILLE     SUNNY     21  10  63 NE8       30.50S WCI  12
CROSSVILLE     MOSUNNY   21  11  65 N7        30.44R WCI  12
$$

TNZ061-075-076-078-094-096-097-271700-
SOUTH MIDDLE TENNESSEE

CITY           SKY/WX    TMP DP  RH WIND       PRES   REMARKS
FAYETTEVILLE   MOSUNNY   23  16  74 NE10        N/A  WCI  12
TULLAHOMA      MOSUNNY   25  12  58 NE12      30.49R WCI  14
WINCHESTER     PTSUNNY   25  16  68 N7        30.50R WCI  17
MCMINNVILLE    SUNNY     25  12  58 N9        30.49S WCI  15
COLUMBIA         N/A     27  14  59 NE10      30.54R WCI  17
SHELBYVILLE    SUNNY     27  12  54 N10       30.53S WCI  17
$$

TNZ017-018-042-046-047-271700-
NORTHEAST TENNESSEE

CITY           SKY/WX    TMP DP  RH WIND       PRES   REMARKS
TRI CITIES     LGT SNOW  29  19  66 NW3       30.42R
ELIZABETHTON   FLURRIES  27  19  74 W7        30.39R WCI  19
$$

TNZ012-013-036-069-073-074-271700-
CENTRAL EAST TENNESSEE

CITY           SKY/WX    TMP DP  RH WIND       PRES   REMARKS
KNOXVILLE      MOSUNNY   27  15  61 NE7       30.47R WCI  19
OAK RIDGE      SUNNY     30  16  56 NE5       30.49R WCI  25
GATLINBURG     CLOUDY    25  18  74 CALM      30.46R
MORRISTOWN     SUNNY     25  16  68 CALM      30.44S
$$

TNZ083-085-099-271700-
SOUTHEAST TENNESSEE

CITY           SKY/WX    TMP DP  RH WIND       PRES   REMARKS
CHATTANOOGA    MOSUNNY   32  18  56 N9        30.48R WCI  24
$$

SKY/WX REPORTED AS FAIR MEANS FEW OR NO CLOUDS BELOW
12 THOUSAND FEET.



USA.gov is the U.S. government's official web portal to all federal, state and local government web resources and services.